This is the latest recevied weather packets stored in our database for station/object DG4DAZ-6. If no packets are shown the sender has not sent any weather packets the latest 10 day(s).
| Time | Temp. | Humidity | Pressure | Rain* | Wind** | Luminosity | Snow |
|---|---|---|---|---|---|---|---|
| 1777900284 | 18.89° C | 62% | 1011.6 hPa | 0 mm | - | 309 W/m² | - |
| 1777899683 | 18.89° C | 65% | 1011.6 hPa | 0 mm | - | 378 W/m² | - |
| 1777899082 | 18.33° C | 67% | 1011.7 hPa | 0 mm | - | 297 W/m² | - |
| 1777898482 | 18.33° C | 65% | 1011.7 hPa | 0 mm | - | 221 W/m² | - |
| 1777897884 | 18.89° C | 62% | 1011.8 hPa | 0 mm | - | 215 W/m² | - |
| 1777897283 | 18.89° C | 62% | 1011.8 hPa | 0 mm | - | 249 W/m² | - |
| 1777896683 | 19.44° C | 61% | 1011.7 hPa | 0 mm | - | 294 W/m² | - |
| 1777896082 | 18.89° C | 63% | 1011.7 hPa | 0 mm | - | 357 W/m² | - |
| 1777895484 | 19.44° C | 62% | 1011.7 hPa | 0 mm | - | 331 W/m² | - |
| 1777894884 | 19.44° C | 62% | 1011.9 hPa | 0 mm | - | 437 W/m² | - |
| 1777894283 | 19.44° C | 61% | 1011.8 hPa | 0 mm | - | 394 W/m² | - |
| 1777893682 | 19.44° C | 60% | 1011.8 hPa | 0 mm | - | 332 W/m² | - |
| 1777893084 | 19.44° C | 60% | 1011.9 hPa | 0 mm | - | 520 W/m² | - |
| 1777892483 | 19.44° C | 59% | 1011.9 hPa | 0 mm | - | 523 W/m² | - |
| 1777891883 | 19.44° C | 61% | 1011.9 hPa | 0 mm | - | 620 W/m² | - |
| 1777891283 | 19.44° C | 61% | 1012 hPa | 0 mm | - | 610 W/m² | - |
| 1777890683 | 18.89° C | 62% | 1012.1 hPa | 0 mm | - | 528 W/m² | - |
| 1777890083 | 19.44° C | 61% | 1012.1 hPa | 0 mm | - | 415 W/m² | - |
| 1777889483 | 18.89° C | 62% | 1012.2 hPa | 0 mm | - | 599 W/m² | - |
| 1777888883 | 18.89° C | 61% | 1012.2 hPa | 0 mm | - | 837 W/m² | - |
| 1777888283 | 18.89° C | 68% | 1012.2 hPa | 0 mm | - | 681 W/m² | - |
| 1777887683 | 18.33° C | 64% | 1012.2 hPa | 0 mm | - | 783 W/m² | - |
| 1777887083 | 18.89° C | 64% | 1012.2 hPa | 0 mm | - | 797 W/m² | - |
| 1777886482 | 18.33° C | 67% | 1012.2 hPa | 0 mm | - | 787 W/m² | - |
| 1777885884 | 17.78° C | 68% | 1012.2 hPa | 0 mm | - | 208 W/m² | - |
* Rain latest hour (hover to see other rain measurements)
** Current wind speed in m/s (hover to see current wind gust speed)